Regional Weather Roundup
Issued by NWS Green Bay, WI

Home | Current Version | Previous Version | Text Only | Print | Product List | Glossary On
Versions: 1 2 3 4 5 6 7 8 9 10 11 12 13 14 15 16 17 18 19 20 21 22 23 24 25 26 27 28 29 30 31 32 33 34 35 36 37 38 39 40 41 42 43 44 45 46 47 48 49 50
000
ASUS43 KGRB 030611
RWRGRB

NORTH-CENTRAL AND NORTHEAST WISCONSIN REGIONAL WEATHER ROUNDUP
NATIONAL WEATHER SERVICE GREEN BAY WI
100 AM CDT MON AUG 03 2015

WIZ005-009-010>012-018-019-030700-
NORTH CENTRAL WISCONSIN

CITY           SKY/WX    TMP DP  RH WIND       PRES   REMARKS
IRONWOOD       CLOUDY    63  50  63 NW8       29.73S
MANITOWISH WTR MOCLDY    55  51  89 CALM      29.77R
ARBOR VITAE    MOCLDY    59  53  78 CALM      29.78R
EAGLE RIVER    PTCLDY    56  50  80 W5        29.75R
LAND O LAKES   MOCLDY    58  50  76 NW5       29.76R
RHINELANDER    PTCLDY    54  52  93 W8        29.78R
PHILLIPS       MOCLDY    57  52  82 CALM      29.78R
ANTIGO         CLEAR     58  56  94 W8        29.78R
TOMAHAWK       PTCLDY    53  50  90 W3        29.79R
MERRILL        NOT AVBL
$$

WIZ013-073-030700-
NORTHEAST WISCONSIN

CITY           SKY/WX    TMP DP  RH WIND       PRES   REMARKS
IRON MOUNTAIN  PTCLDY    58  53  84 NW3       29.71R
MARINETTE      CLEAR     63  55  77 CALM      29.69S
OCONTO         CLEAR     58  58 100 CALM      29.71R
$$

WIZ017-030-035>037-045-030700-
CENTRAL WISCONSIN

CITY           SKY/WX    TMP DP  RH WIND       PRES   REMARKS
MEDFORD        CLEAR     58  52  80 W6        29.81R
WAUSAU         PTCLDY    62  55  77 W6        29.77R
MOSINEE        PTCLDY    61  54  77 NW7       29.79R
MARSHFIELD     PTCLDY    62  55  77 W6        29.80R
WISC RAPIDS    PTCLDY    63  56  78 NW3       29.80R
STEVENS POINT  MOCLDY    63  55  74 NW3       29.79R
WAUPACA        PTCLDY    67  57  69 W5        29.76R
SHAWANO        CLEAR     64  59  86 W6        29.74R
CLINTONVILLE   PTCLDY    63  55  77 NW7       29.74R
$$

WIZ038-039-048-051-030700-
FOX VALLEY

CITY           SKY/WX    TMP DP  RH WIND       PRES   REMARKS
NWS GREEN BAY  MOCLDY    64  62  93 W7        29.73R
APPLETON       MOCLDY    63  61  94 W9        29.75R
OSHKOSH        PTCLDY    66  62  87 NW5       29.74R
FOND DU LAC    CLEAR     65  62  90 W6        29.74R
$$

WIZ022-050-052-030700-
EAST CENTRAL WISCONSIN

CITY           SKY/WX    TMP DP  RH WIND       PRES   REMARKS
STURGEON BAY   PTCLDY    63  57  82 W3        29.72S
MANITOWOC      PTCLDY    64  60  87 MISG      29.72R
SHEBOYGAN      MOCLDY    64  60  87 MISG      29.72R
$$

LMZ563-521-522-541>543-030700-
LAKESHORE

STATION/POSITION TIME  TEMP    WIND        PRES    VSBY  WAVE
                       AIR SEA DIR/SP/G                  HT/PER
                 (UTC) (F)     (DEG/KT/KT) (MB)    (MI)  (FT/S)
SHEBOYGAN LKSHOR 0600   67     280/ 10/ 11 1006.4R
KEWAUNEE LKSHORE 0500   63     300/  5/  6 1004.9R
ALGOMA MARINA    0512          310/  2/  5   N/A
NORTHPORT PIER   0500   66     280/  5/  7 1004.7R
N MID LAKE BUOY  0550   67 68  260/ 10/ 12 1003.9R         2/ 5
S GREEN BAY BUOY 0600   65 67  280/  8/ 10 1007.3R
CHAMBERS ISLAND  0500   67     240/  2/  5 1005.1R
MENOMINEE LKSHOR 0500   66     260/  5/  7 1006.2R
$$


USA.gov is the U.S. government's official web portal to all federal, state and local government web resources and services.